Probability
3 3 3 3 3 3 3 3 3 3 3 3 3 3 3 6 6 6 6 16 45 55 52 52 58 52 52 52 45 48 35 29 35 39 45 39 35 35 26 19 19 29 29
3 3 3 3 3 3 3 3 3 3 3 3 3 3 6 3 3 3 3 16 35 48 58 55 55 55 52 48 58 55 42 42 39 45 35 45 39 32 32 29 23 26 29
6 3 3 3 3 3 3 3 3 3 3 3 3 3 3 3 3 3 3 0 6 26 52 58 58 52 55 48 48 45 52 42 32 39 39 42 48 45 35 26 29 26 26
13 10 10 6 6 6 6 10 6 6 3 3 3 3 3 3 3 3 0 0 3 3 23 45 55 52 42 39 39 45 42 48 42 35 32 32 26 23 26 23 23 23 16
13 10 6 6 13 13 6 6 6 3 3 3 3 3 3 3 3 3 3 0 0 0 6 13 39 48 42 42 32 35 39 39 42 35 29 26 23 26 26 16 16 16 10
19 16 16 10 6 10 10 6 6 3 3 3 3 3 3 3 3 3 3 0 0 0 3 6 10 23 35 35 29 29 39 39 32 35 26 29 23 19 13 13 6 6 10
23 13 13 10 10 10 6 6 3 6 3 3 3 3 0 0 0 0 0 0 0 0 0 3 3 6 10 26 39 35 39 35 29 29 32 32 19 16 13 13 10 10 13
13 19 10 13 6 6 6 6 6 3 3 3 3 0 0 0 0 0 0 0 0 0 0 0 0 3 3 6 10 16 29 35 39 32 26 23 23 16 10 16 13 6 10
19 19 16 10 6 6 6 6 6 3 6 3 0 0 0 0 0 0 0 0 3 3 0 3 0 0 3 3 10 10 16 23 39 35 29 26 23 16 13 16 13 10 10
16 19 19 13 6 6 6 6 6 3 3 3 3 3 0 0 0 0 0 0 0 3 3 0 3 0 0 0 3 3 6 3 19 26 29 26 23 19 13 16 16 13 10
13 19 19 13 13 13 13 10 10 3 3 0 0 0 0 0 0 0 0 0 3 3 0 0 3 3 3 0 3 0 3 3 0 13 23 19 19 16 13 16 13 13 13
6 16 19 16 16 16 16 16 6 10 3 0 0 0 0 0 0 0 0 0 3 3 0 0 0 3 3 3 3 3 3 0 0 0 6 19 23 16 13 16 16 16 16
19 16 19 16 16 16 23 16 13 10 10 6 6 3 0 6 3 0 0 3 3 0 3 3 6 6 3 6 10 3 3 3 3 0 0 0 3 10 6 6 13 10 13
23 23 19 16 19 19 16 16 23 16 13 6 6 6 10 10 10 6 6 10 10 6 6 10 6 6 6 6 6 0 6 0 0 0 0 0 0 0 0 0 3 3 3
29 26 26 23 23 19 19 16 23 23 13 10 13 13 10 10 10 6 6 10 10 10 10 10 10 13 10 10 3 3 3 3 3 3 3 0 0 0 0 0 0 0 0
32 26 29 26 19 23 19 13 19 16 16 19 16 16 16 13 13 10 10 10 10 10 10 10 10 10 6 6 3 6 6 3 3 3 0 0 0 0 0 0 0 0 0
32 29 29 23 23 26 19 13 13 16 16 19 16 16 16 13 13 13 10 10 10 10 10 10 10 10 10 10 6 6 6 6 6 0 0 0 0 0 0 0 0 0 0
32 32 26 23 26 26 19 13 13 10 13 13 13 13 13 13 13 13 13 13 13 10 10 13 13 10 13 10 6 6 6 6 6 0 0 0 0 0 0 0 0 0 0
26 29 23 19 23 23 19 16 16 16 16 16 16 16 16 13 13 16 13 13 13 13 13 13 13 13 6 6 6 3 3 3 0 0 0 0 0 0 0 0 0 0 0
29 19 13 16 19 16 16 13 13 13 16 16 16 16 13 10 10 10 6 13 13 13 13 13 13 13 10 3 6 3 3 3 0 0 0 0 0 0 0 0 0 0 0
23 16 19 13 13 13 13 10 10 13 13 13 16 13 13 6 6 6 6 10 10 10 10 13 13 10 6 3 6 3 3 3 3 0 0 0 0 0 0 0 0 0 0
16 13 13 13 13 13 6 3 3 6 10 13 13 10 10 6 6 3 0 0 3 10 10 10 10 10 10 10 3 3 3 3 3 3 0 0 0 0 0 0 0 0 0
16 16 13 13 13 10 6 0 0 3 10 10 13 10 6 10 6 13 6 0 0 0 3 10 10 6 10 10 6 3 3 3 3 3 0 0 0 0 0 0 0 0 0
13 13 13 13 10 6 6 0 0 0 3 6 6 10 10 13 10 13 13 10 6 6 3 0 6 6 6 10 3 3 3 3 3 3 0 3 0 0 0 0 0 0 0
6 6 10 10 10 6 3 0 0 0 0 3 6 6 6 6 6 0 3 13 10 10 6 0 0 0 0 0 3 3 3 3 3 3 0 0 3 0 0 0 0 0 0
6 3 6 6 3 3 3 0 0 0 6 6 6 3 0 0 0 0 0 6 10 10 10 3 0 0 0 0 0 0 3 3 3 3 3 0 3 0 0 0 0 0 0
Height
5881 5881 5881 5881 5881 5881 5882 5882 5882 5882 5883 5883 5883 5883 5884 5883 5884 5884 5884 5884 5884 5884 5884 5884 5884 5885 5885 5885 5885 5886 5886 5886 5887 5887 5888 5888 5889 5889 5889 5889 5890 5890 5890
5882 5881 5881 5881 5882 5882 5882 5882 5882 5882 5882 5883 5883 5883 5883 5883 5883 5883 5883 5883 5883 5883 5883 5883 5883 5883 5883 5883 5884 5884 5884 5885 5885 5885 5886 5886 5887 5887 5887 5888 5888 5888 5888
5882 5882 5882 5882 5882 5882 5882 5882 5882 5882 5882 5882 5882 5882 5882 5882 5882 5882 5882 5882 5882 5882 5882 5882 5882 5882 5882 5882 5882 5882 5882 5883 5883 5883 5884 5884 5885 5885 5885 5885 5886 5886 5886
5883 5883 5882 5882 5882 5882 5882 5882 5882 5882 5882 5882 5882 5882 5882 5881 5881 5881 5881 5881 5881 5881 5881 5881 5881 5881 5881 5880 5880 5880 5881 5881 5881 5881 5881 5881 5882 5883 5883 5883 5883 5883 5883
5884 5883 5883 5883 5883 5883 5882 5882 5882 5882 5881 5881 5881 5881 5881 5881 5880 5880 5880 5880 5879 5879 5879 5879 5879 5879 5879 5879 5879 5879 5879 5879 5879 5879 5879 5879 5880 5880 5880 5880 5881 5881 5880
5885 5884 5883 5883 5883 5883 5882 5882 5882 5881 5881 5881 5881 5881 5880 5880 5880 5879 5879 5878 5878 5877 5877 5877 5877 5877 5877 5876 5876 5876 5876 5876 5877 5877 5877 5877 5877 5877 5877 5877 5878 5877 5877
5885 5885 5884 5883 5883 5882 5882 5882 5881 5881 5881 5880 5880 5879 5879 5879 5878 5878 5877 5877 5876 5876 5875 5875 5875 5875 5874 5874 5874 5874 5874 5874 5874 5874 5874 5874 5874 5874 5874 5874 5874 5874 5873
5886 5885 5885 5884 5883 5882 5882 5881 5881 5880 5880 5879 5879 5878 5878 5878 5876 5876 5876 5875 5874 5874 5873 5873 5873 5872 5872 5872 5872 5872 5872 5872 5871 5871 5871 5871 5871 5871 5871 5871 5870 5870 5870
5887 5886 5885 5884 5883 5882 5881 5881 5880 5880 5879 5878 5878 5877 5876 5876 5875 5874 5873 5873 5872 5872 5871 5870 5870 5870 5869 5869 5869 5869 5869 5869 5868 5868 5868 5868 5868 5867 5867 5866 5866 5865 5865
5888 5886 5885 5884 5883 5882 5881 5880 5879 5879 5878 5877 5876 5875 5875 5874 5873 5872 5871 5870 5870 5869 5868 5868 5867 5867 5866 5866 5865 5865 5865 5865 5865 5865 5864 5864 5864 5863 5863 5862 5861 5861 5861
5888 5887 5885 5884 5883 5882 5881 5880 5879 5878 5877 5876 5875 5874 5873 5872 5871 5870 5869 5868 5867 5866 5865 5864 5864 5863 5863 5862 5862 5862 5861 5861 5861 5861 5860 5860 5859 5859 5858 5858 5857 5857 5856
5888 5887 5886 5884 5883 5882 5881 5879 5878 5877 5876 5875 5874 5872 5871 5870 5869 5867 5866 5865 5864 5863 5862 5861 5860 5859 5859 5858 5858 5858 5858 5857 5857 5857 5856 5855 5855 5854 5854 5853 5852 5852 5851
5888 5887 5885 5884 5883 5882 5880 5879 5877 5876 5874 5873 5872 5871 5869 5868 5866 5865 5864 5862 5861 5859 5858 5857 5856 5855 5855 5854 5854 5854 5853 5853 5853 5852 5852 5851 5850 5849 5849 5848 5847 5846 5845
5888 5887 5885 5884 5882 5881 5879 5878 5876 5875 5873 5872 5870 5869 5867 5865 5863 5862 5861 5860 5858 5856 5855 5853 5852 5851 5851 5850 5850 5849 5849 5848 5848 5847 5847 5846 5845 5844 5843 5842 5841 5840 5840
5888 5886 5884 5883 5881 5880 5878 5877 5875 5873 5871 5870 5868 5866 5865 5862 5861 5859 5858 5856 5855 5853 5851 5850 5849 5848 5847 5846 5845 5845 5844 5844 5843 5842 5842 5841 5840 5839 5838 5837 5835 5834 5833
5887 5885 5883 5882 5880 5878 5877 5875 5874 5872 5870 5868 5866 5864 5862 5860 5858 5856 5855 5853 5851 5850 5848 5847 5845 5844 5843 5842 5841 5840 5840 5839 5838 5837 5836 5835 5834 5833 5832 5830 5829 5828 5827
5885 5883 5882 5880 5878 5877 5875 5873 5872 5870 5868 5866 5864 5862 5860 5858 5856 5854 5852 5850 5848 5847 5845 5843 5841 5840 5839 5838 5836 5836 5835 5834 5833 5832 5831 5830 5828 5827 5826 5824 5823 5821 5820
5883 5881 5880 5878 5876 5875 5873 5871 5869 5867 5865 5863 5861 5859 5857 5855 5853 5851 5849 5847 5845 5843 5841 5840 5838 5836 5834 5833 5832 5831 5830 5829 5828 5826 5825 5824 5822 5821 5819 5818 5816 5815 5814
5880 5879 5877 5876 5874 5872 5870 5868 5866 5864 5862 5860 5858 5856 5854 5852 5850 5848 5845 5843 5841 5839 5837 5836 5834 5832 5830 5829 5827 5826 5825 5823 5822 5820 5819 5817 5816 5814 5813 5811 5810 5809 5807
5878 5876 5874 5873 5871 5869 5867 5865 5863 5861 5859 5857 5855 5853 5850 5848 5846 5844 5841 5839 5837 5835 5833 5831 5829 5828 5826 5824 5822 5820 5819 5817 5816 5814 5812 5811 5809 5807 5806 5804 5803 5802 5801
5875 5873 5871 5869 5868 5866 5864 5862 5860 5858 5855 5853 5851 5849 5846 5844 5842 5840 5837 5835 5833 5831 5829 5827 5825 5823 5821 5819 5817 5815 5813 5811 5809 5808 5806 5804 5802 5801 5799 5798 5796 5795 5794
5870 5869 5867 5865 5864 5862 5860 5857 5855 5853 5851 5849 5847 5844 5842 5840 5838 5835 5833 5831 5828 5826 5824 5822 5820 5817 5815 5813 5811 5809 5807 5805 5803 5802 5799 5798 5795 5794 5792 5791 5789 5788 5787
5866 5864 5863 5861 5859 5857 5855 5853 5851 5848 5846 5844 5842 5840 5837 5835 5833 5831 5828 5826 5823 5821 5819 5817 5814 5812 5809 5807 5805 5802 5800 5798 5797 5795 5793 5791 5789 5787 5786 5784 5783 5782 5780
5861 5860 5858 5856 5854 5852 5850 5848 5845 5843 5841 5839 5837 5835 5832 5830 5828 5825 5823 5821 5818 5816 5813 5811 5809 5806 5803 5800 5798 5796 5794 5792 5790 5788 5786 5785 5783 5781 5779 5777 5776 5774 5773
5856 5854 5853 5851 5849 5846 5844 5842 5840 5838 5836 5834 5832 5829 5827 5824 5822 5820 5817 5815 5812 5810 5807 5805 5802 5799 5797 5794 5791 5789 5787 5785 5783 5781 5779 5777 5776 5774 5772 5770 5768 5767 5765
5851 5849 5847 5845 5843 5841 5839 5836 5834 5832 5830 5828 5826 5823 5821 5819 5816 5814 5812 5809 5806 5804 5801 5798 5796 5793 5790 5788 5785 5783 5780 5778 5776 5775 5772 5770 5768 5766 5765 5763 5761 5759 5757
Wind_Speed
5 4 3 3 2 1 1 0 0 1 2 2 3 3 3 3 3 3 3 3 2 3 3 4 4 5 5 6 7 7 6 7 7 7 7 7 8 8 8 8 8 9 9
5 4 3 3 2 2 1 1 1 1 2 2 2 3 3 4 4 4 5 5 4 4 5 5 5 6 6 7 7 7 8 8 8 8 8 8 8 8 8 8 9 9 9
6 5 3 3 3 2 1 1 1 1 2 2 2 2 3 4 4 4 5 6 6 6 6 6 6 6 6 7 8 8 8 9 9 9 9 9 9 9 9 10 10 10 10
7 5 4 3 2 2 2 2 2 2 2 2 3 4 4 4 4 5 5 6 6 7 7 7 7 7 8 8 8 9 9 9 10 10 11 11 11 11 10 11 11 11 12
7 6 4 3 3 3 2 2 2 3 3 3 3 4 5 5 5 6 6 7 7 8 8 8 9 9 9 9 9 10 10 10 10 11 11 12 12 12 11 11 12 12 13
7 6 5 4 3 3 3 3 3 4 3 4 4 5 6 6 6 6 7 8 8 9 9 10 10 10 10 10 10 10 10 10 11 12 12 12 12 13 13 12 12 13 14
7 6 5 6 5 4 4 4 4 4 4 5 5 6 6 7 7 8 8 8 8 9 10 10 10 10 11 11 11 11 11 11 11 12 13 13 14 15 14 15 15 15 15
7 6 6 7 6 5 4 4 4 5 5 5 6 6 7 8 8 9 9 9 9 10 10 11 11 11 11 11 12 12 12 13 13 14 14 14 15 15 16 16 17 17 17
7 7 7 7 7 6 5 5 5 5 6 6 7 7 8 8 9 10 10 10 10 11 11 12 12 12 13 13 14 14 14 14 14 14 14 15 16 16 16 17 18 18 18
8 8 8 8 8 7 6 6 6 7 7 7 7 8 8 9 9 10 11 11 11 12 12 13 13 13 13 14 14 15 15 15 15 15 15 16 16 17 18 18 17 18 18
8 8 8 8 8 8 7 7 8 8 8 8 8 8 9 10 10 11 11 13 13 13 14 14 15 14 14 14 14 15 15 15 16 16 16 17 17 18 18 19 18 19 19
9 9 8 8 8 8 8 8 8 8 8 8 8 9 10 11 11 12 12 13 14 14 14 15 15 15 14 15 15 15 16 16 17 17 17 17 18 18 19 19 20 20 20
9 9 9 9 9 9 9 9 9 9 9 9 10 10 11 12 12 13 13 13 13 14 14 14 15 15 15 15 16 15 16 17 17 17 18 18 18 19 19 20 20 21 21
9 10 10 10 10 11 11 11 10 10 10 10 11 12 12 13 13 13 13 13 13 13 13 14 14 15 15 16 16 16 17 17 18 18 19 19 20 20 20 21 21 23 22
11 11 11 11 11 11 11 12 12 11 11 12 12 13 13 14 13 13 14 14 13 13 13 14 14 15 15 15 16 17 17 18 19 19 20 20 21 21 21 22 22 22 23
11 11 12 12 12 12 12 13 13 13 13 13 13 14 13 14 14 14 15 15 15 15 15 15 15 15 16 16 17 17 18 19 19 19 19 20 21 21 21 21 22 22 23
13 13 13 13 13 13 13 14 14 14 14 14 14 15 15 15 15 15 15 16 16 16 15 15 16 16 17 18 18 18 18 19 20 20 21 22 23 23 23 23 24 23 24
14 14 14 14 14 14 14 15 15 16 16 16 16 16 16 17 17 17 17 17 17 17 17 17 17 18 18 18 18 19 20 21 22 22 22 23 23 24 24 24 24 24 24
15 14 14 14 15 15 15 16 16 17 17 17 17 17 17 18 18 18 17 18 18 18 18 18 18 18 19 19 19 20 21 22 23 23 23 24 24 25 24 24 24 24 23
15 15 16 16 16 17 17 17 17 18 18 18 18 19 18 18 18 18 18 19 19 19 19 19 19 19 20 19 20 21 22 22 23 23 24 24 24 24 24 25 24 24 24
17 17 17 18 18 18 19 19 19 19 19 19 20 20 19 19 19 19 19 20 20 19 20 20 20 20 20 20 21 21 22 23 23 23 23 23 23 24 24 24 24 24 24
18 18 18 19 19 20 20 20 21 20 20 20 20 20 20 19 19 20 20 21 21 21 21 21 21 21 21 22 22 23 23 22 22 23 23 22 22 23 23 23 24 24 24
19 19 20 20 21 21 21 21 22 22 21 21 21 20 20 20 20 21 22 22 22 22 22 22 22 22 22 23 23 24 24 24 24 23 23 23 22 23 23 23 23 24 24
20 20 20 21 22 22 21 21 22 22 21 21 21 21 21 21 22 22 22 23 23 23 23 23 23 23 23 23 23 24 24 23 23 23 23 23 24 23 24 24 24 24 24
20 20 21 22 22 22 22 22 22 22 22 22 22 22 22 23 23 23 23 24 24 24 25 25 24 24 24 24 24 24 24 24 23 23 24 24 24 24 24 24 25 25 25
21 21 22 23 23 23 22 23 23 23 23 23 23 23 23 23 23 24 24 25 25 25 25 24 24 25 25 24 24 25 24 24 24 24 24 24 25 25 25 26 26 26 25
Wind_Direction
60 69 85 82 84 90 91 129 43 254 254 254 245 238 243 252 251 244 249 253 259 261 259 263 260 258 255 251 250 249 250 249 249 246 246 249 248 248 243 244 249 251 253
49 54 79 82 71 58 28 359 3 293 273 265 257 239 251 258 260 259 258 258 260 265 267 264 261 262 263 257 255 254 251 250 250 249 250 250 251 249 248 249 252 254 255
51 55 68 69 62 56 33 359 340 320 290 276 277 272 270 273 270 266 265 267 268 267 266 266 263 264 263 257 256 258 252 252 255 253 252 252 253 253 255 257 256 257 260
42 42 34 33 40 32 22 12 327 313 304 299 292 286 284 289 278 276 279 278 272 267 267 267 268 270 267 260 259 259 258 258 258 255 254 254 253 255 256 258 259 260 261
36 30 29 17 5 5 359 344 329 320 305 304 304 300 299 296 291 286 285 282 275 268 268 269 269 270 269 266 265 262 261 261 260 257 257 256 254 257 258 259 262 264 264
36 33 35 21 4 359 347 333 321 319 313 302 303 302 298 295 293 289 288 285 278 271 270 272 272 269 271 270 269 269 266 267 264 262 260 259 259 259 260 261 266 267 268
31 28 31 19 8 357 347 340 329 323 319 314 307 301 298 295 292 290 293 292 289 281 271 275 275 277 273 270 270 272 269 270 268 266 263 264 264 263 264 264 266 269 270
27 27 22 12 4 356 347 337 327 323 322 320 315 309 302 297 296 294 294 293 293 289 283 282 280 278 277 274 271 273 273 272 271 268 266 266 265 265 266 268 268 268 268
23 21 19 11 3 355 349 343 332 326 322 321 314 306 303 300 300 300 297 294 291 287 285 283 281 280 279 277 275 274 274 273 271 271 269 270 269 269 269 271 269 268 270
15 12 9 9 4 358 353 342 333 323 320 321 321 315 308 302 300 299 299 295 290 287 283 281 279 278 279 277 274 273 270 269 270 270 271 272 272 273 273 274 274 274 274
12 9 4 1 4 3 354 340 330 326 323 322 322 321 315 310 306 302 301 298 292 289 284 281 280 277 277 278 276 274 271 270 271 270 271 272 273 273 274 275 274 274 274
14 10 6 4 1 359 354 347 339 329 327 322 318 316 313 309 306 305 303 301 297 293 290 286 281 279 278 278 278 275 274 272 273 273 274 273 273 275 273 274 274 274 275
2 358 355 353 349 347 344 341 338 334 328 323 317 314 312 310 305 304 304 304 302 301 298 291 283 279 278 276 274 275 274 272 274 276 276 275 275 277 275 275 274 275 275
349 346 345 343 339 338 338 336 334 331 327 324 323 319 316 312 309 308 310 309 306 304 300 295 287 282 279 276 272 274 274 272 272 275 276 277 276 277 277 276 274 273 271
342 339 337 335 335 334 333 333 331 327 325 323 321 318 316 314 310 311 313 311 309 306 303 301 295 288 284 282 280 279 278 280 277 278 278 278 279 279 278 279 277 275 272
330 330 330 330 330 330 331 331 328 326 325 323 321 321 319 320 319 313 310 309 307 307 307 302 297 295 289 288 283 280 279 280 281 279 281 281 279 278 279 281 281 278 276
323 321 322 324 327 328 327 326 325 323 323 323 323 321 319 317 316 313 311 309 308 308 306 302 297 296 292 288 283 283 284 284 286 283 283 283 281 280 281 281 281 279 277
323 320 319 321 322 323 323 322 321 320 320 320 319 317 315 314 314 311 309 307 305 305 304 302 299 296 294 288 287 286 286 285 286 286 285 284 282 282 281 281 281 280 278
322 321 318 318 319 319 319 319 319 320 319 318 317 315 314 313 312 309 307 305 304 303 302 301 300 297 295 288 287 286 286 285 285 286 286 288 286 285 285 285 283 284 282
317 317 316 315 315 316 316 315 316 316 316 316 315 315 312 311 310 308 306 305 304 303 303 301 299 297 295 292 290 288 287 286 287 287 288 289 289 286 286 286 283 282 281
312 312 312 312 311 310 310 309 310 311 312 313 313 312 311 310 310 308 306 305 305 304 303 302 301 299 296 293 291 291 291 290 289 287 287 288 289 287 285 284 281 282 282
308 309 309 308 307 306 306 306 307 308 310 310 310 310 310 309 309 310 309 308 305 303 301 301 300 298 295 293 292 291 292 293 292 290 291 290 289 288 288 286 283 282 283
305 307 308 307 305 305 304 305 306 306 307 308 308 307 308 307 305 306 306 306 306 303 301 300 300 299 297 296 295 294 294 293 293 293 292 292 290 290 289 290 289 286 285
301 303 305 305 305 306 303 303 304 304 304 305 305 305 304 304 304 304 304 304 304 302 301 301 300 299 299 299 297 296 295 294 293 292 292 291 290 290 290 290 289 289 288
298 300 302 303 304 304 303 303 303 302 302 303 302 303 302 302 302 303 303 303 303 301 301 302 302 300 299 299 297 296 295 294 293 291 291 290 288 289 290 291 289 288 288
298 299 300 301 302 302 302 303 303 302 301 302 302 300 300 301 300 301 303 304 303 302 301 302 301 300 299 299 298 297 295 293 293 293 292 290 288 288 289 290 290 290 290